Weather History for EHBK - January, 2014

Change the Weather History Date:

Friday, January 31, 2014

  Actual Average Record
Temperature  
Mean Temperature 38 °F -  
Max Temperature 46 °F 42 °F 51 °F (2002)
Min Temperature 30 °F 31 °F 21 °F (2003)
Degree Days  
Heating Degree Days 27    
Moisture  
Dew Point 32 °F    
Average Humidity 77    
Maximum Humidity 94    
Minimum Humidity 50    
Precipitation  
Precipitation 0.00 in 0.07 in - ()
Sea Level Pressure  
Sea Level Pressure 29.72 in    
Wind  
Wind Speed 7 mph ()    
Max Wind Speed 18 mph    
Max Gust Speed -    
Visibility 5.8 miles    
Events      
Averages and records for this station are not official NWS values.
T = Trace of Precipitation, MM = Missing Value Source: Averaged Metar Reports

Daily Weather History Graph

Daily Weather History Graph

Search for Another Location

Airport or City:

Trip Planner

Search our weather history database for the weather conditions in past years. The results will help you decide how hot, cold, wet, or windy it might be!

Date:

Astronomy

Jan. 31, 2014 Rise Set
Actual Time 8:15 AM CET 5:26 PM CET
Civil Twilight 7:39 AM CET 6:02 PM CET
Nautical Twilight 6:59 AM CET 6:41 PM CET
Astronomical Twilight 6:20 AM CET 7:20 PM CET
Moon 8:04 AM CET (1/31) 6:44 PM CET (1/31)
Length of Visible Light 10h 22m
Length of Day
9h 11m
New Moon, 0% of the Moon is Illuminated
Jan 31
New Moon
Feb 6
First Quarter
Feb 15
Full
Feb 22
Last Quarter
Mar 1
New

Hourly Weather History & Observations

Time (CET) Temp. Windchill Dew Point Humidity Pressure Visibility Wind Dir Wind Speed Gust Speed Precip Events Conditions
12:00 AM 32 °F - 30 °F 91% 29.75 in 5 mi SE 4.5 mph - -   Mist
12:25 AM 32.0 °F 27.5 °F 30.2 °F 93% 29.71 in 6.2 mi SE 4.6 mph - N/A   Unknown
12:55 AM 32.0 °F - 30.2 °F 93% 29.71 in 6.2 mi South 2.3 mph - N/A   Unknown
1:00 AM 33 °F - 31 °F 91% 29.74 in 6 mi South 2.2 mph - -   Partly Cloudy
1:25 AM 32.0 °F 28.7 °F 30.2 °F 93% 29.71 in 5.6 mi South 3.5 mph - N/A   Unknown
1:55 AM 32.0 °F 27.5 °F 30.2 °F 93% 29.71 in 5.6 mi SSE 4.6 mph - N/A   Unknown
2:00 AM 32 °F - 31 °F 94% 29.76 in 6 mi SSE 4.5 mph - -   Overcast
2:25 AM 32.0 °F 28.7 °F 30.2 °F 93% 29.74 in 6.2 mi South 3.5 mph - N/A   Unknown
2:55 AM 32.0 °F - 30.2 °F 93% 29.74 in 5.6 mi South 2.3 mph - N/A   Unknown
3:00 AM 33 °F - 31 °F 92% 29.77 in 6 mi SSW 2.2 mph - -   Overcast
3:25 AM 32.0 °F 28.7 °F 30.2 °F 93% 29.74 in 5.6 mi SSE 3.5 mph - N/A   Unknown
3:55 AM 32.0 °F 26.4 °F 30.2 °F 93% 29.74 in 5.6 mi SSW 5.8 mph - N/A   Unknown
4:00 AM 33 °F - 30 °F 85% 29.76 in 6 mi South 4.5 mph - -   Scattered Clouds
4:25 AM 32.0 °F 26.4 °F 30.2 °F 93% 29.74 in 6.2 mi South 5.8 mph - N/A   Unknown
4:55 AM 32.0 °F 25.6 °F 28.4 °F 87% 29.74 in 6.2 mi South 6.9 mph - N/A   Unknown
5:00 AM 32 °F - 29 °F 85% 29.76 in 6 mi South 6.7 mph - -   Mist
5:25 AM 32.0 °F 25.6 °F 28.4 °F 87% 29.74 in 5.6 mi SSW 6.9 mph - N/A   Unknown
5:55 AM 32.0 °F 26.4 °F 28.4 °F 87% 29.71 in 5.6 mi SSW 5.8 mph - N/A   Unknown
6:00 AM 31 °F - 28 °F 84% 29.76 in 6 mi SSW 6.7 mph - -   Mist
6:25 AM 30.2 °F 23.4 °F 28.4 °F 93% 29.71 in 5.0 mi SSW 6.9 mph - N/A   Unknown
6:55 AM 30.2 °F 23.4 °F 28.4 °F 93% 29.74 in 3.7 mi SSW 6.9 mph - N/A   Unknown
7:00 AM 31 °F - 29 °F 87% 29.77 in 4 mi SSW 6.7 mph - -   Mist
7:25 AM 30.2 °F 22.6 °F 28.4 °F 93% 29.74 in 3.7 mi SSW 8.1 mph - N/A   Unknown
7:55 AM 30.2 °F 22.6 °F 28.4 °F 93% 29.74 in 3.1 mi SSW 8.1 mph - N/A   Mist
8:00 AM 31 °F - 29 °F 87% 29.79 in 4 mi SSW 8.9 mph - -   Mist
8:25 AM 30.2 °F 22.6 °F 28.4 °F 93% 29.74 in 3.7 mi SSW 8.1 mph - N/A   Unknown
8:55 AM 32.0 °F 24.8 °F 30.2 °F 93% 29.77 in 3.7 mi SSW 8.1 mph - N/A   Unknown
9:00 AM 32 °F - 29 °F 86% 29.80 in 4 mi South 6.7 mph - -   Mist
9:25 AM 33.8 °F 27.7 °F 30.2 °F 87% 29.77 in 3.7 mi SSW 6.9 mph - N/A   Unknown
9:55 AM 33.8 °F 25.8 °F 30.2 °F 87% 29.77 in 3.7 mi SSW 10.4 mph - N/A   Unknown
10:00 AM 35 °F - 30 °F 76% 29.81 in 4 mi SSW 8.9 mph - -   Mist
10:25 AM 35.6 °F 28.0 °F 30.2 °F 81% 29.77 in 4.3 mi SSW 10.4 mph - N/A   Unknown
10:55 AM 37.4 °F 30.8 °F 32.0 °F 81% 29.77 in 5.0 mi SSW 9.2 mph - N/A   Unknown
11:00 AM 38 °F - 32 °F 73% 29.80 in 5 mi SSW 11.2 mph - -   Mist
11:25 AM 39.2 °F 31.6 °F 32.0 °F 75% 29.77 in 5.0 mi SSW 12.7 mph - N/A   Unknown
11:55 AM 41.0 °F 34.7 °F 33.8 °F 76% 29.77 in 5.0 mi SSW 10.4 mph - N/A   Unknown
12:00 PM 41 °F - 33 °F 66% 29.80 in 5 mi SSW 11.2 mph - -   Light Haze
12:25 PM 41.0 °F 34.7 °F 33.8 °F 76% 29.77 in 5.6 mi SSW 10.4 mph - N/A   Unknown
12:55 PM 42.8 °F 37.5 °F 33.8 °F 70% 29.74 in 5.0 mi SSW 9.2 mph - N/A   Unknown
1:00 PM 44 °F - 34 °F 57% 29.78 in 6 mi SSW 8.9 mph - -   Light Haze
1:25 PM 44.6 °F 40.2 °F 33.8 °F 66% 29.74 in 6.2 mi SSW 8.1 mph - N/A   Unknown
1:55 PM 46.4 °F 42.4 °F 35.6 °F 66% 29.74 in 6.2 mi SSW 8.1 mph - N/A   Unknown
2:00 PM 46 °F - 34 °F 53% 29.76 in 7 mi South 8.9 mph - -  
2:25 PM 46.4 °F 41.1 °F 33.8 °F 62% 29.74 in 6.2 mi SSW 11.5 mph - N/A   Unknown
2:55 PM 46.4 °F 40.4 °F 33.8 °F 62% 29.71 in 6.2 mi SSW 13.8 mph - N/A   Unknown
3:00 PM 47 °F - 34 °F 50% 29.74 in 11 mi SSW 13.4 mph - -  
3:25 PM 46.4 °F 41.5 °F 33.8 °F 62% 29.71 in 6.2 mi SSW 10.4 mph - N/A   Unknown
3:55 PM 46.4 °F 41.1 °F 33.8 °F 62% 29.71 in 6.2 mi SSW 11.5 mph - N/A   Unknown
4:00 PM 45 °F - 34 °F 56% 29.73 in 10 mi SSW 11.2 mph - -  
4:25 PM 44.6 °F 40.2 °F 35.6 °F 71% 29.71 in 6.2 mi SSW 8.1 mph - N/A   Unknown
4:55 PM 44.6 °F 41.4 °F 33.8 °F 66% 29.71 in 6.2 mi South 5.8 mph - N/A   Unknown
5:00 PM 44 °F - 34 °F 59% 29.73 in 8 mi South 6.7 mph - -   Mostly Cloudy
5:25 PM 42.8 °F 39.3 °F 33.8 °F 70% 29.68 in 6.2 mi South 5.8 mph - N/A   Unknown
5:55 PM 42.8 °F 39.3 °F 33.8 °F 70% 29.68 in 6.2 mi SSE 5.8 mph - N/A   Unknown
6:00 PM 43 °F - 34 °F 61% 29.72 in 7 mi SSE 6.7 mph - -  
6:25 PM 42.8 °F 38.6 °F 33.8 °F 70% 29.68 in 6.2 mi South 6.9 mph - N/A   Unknown
6:55 PM 42.8 °F 37.5 °F 33.8 °F 70% 29.68 in 6.2 mi South 9.2 mph - N/A   Unknown
7:00 PM 42 °F - 34 °F 63% 29.71 in 9 mi SSE 11.2 mph - -   Partly Cloudy
7:25 PM 41.0 °F 34.7 °F 33.8 °F 76% 29.68 in 6.2 mi South 10.4 mph - N/A   Unknown
7:55 PM 42.8 °F 36.2 °F 33.8 °F 70% 29.65 in 6.2 mi South 12.7 mph - N/A   Unknown
8:00 PM 42 °F - 33 °F 62% 29.68 in 6 mi South 13.4 mph - -   Overcast
8:25 PM 42.8 °F 35.8 °F 33.8 °F 70% 29.62 in 6.2 mi South 13.8 mph - N/A   Unknown
8:55 PM 42.8 °F 35.8 °F 33.8 °F 70% 29.62 in 6.2 mi South 13.8 mph - N/A   Unknown
9:00 PM 42 °F - 34 °F 63% 29.65 in 6 mi South 15.7 mph - -   Overcast
9:25 PM 42.8 °F 35.1 °F 33.8 °F 70% 29.59 in 6.2 mi South 16.1 mph - N/A   Unknown
9:55 PM 42.8 °F 34.8 °F 33.8 °F 70% 29.59 in 6.2 mi South 17.3 mph - N/A   Unknown
10:00 PM 43 °F - 34 °F 60% 29.60 in 7 mi South 17.9 mph - -   Overcast
10:25 PM 42.8 °F 35.8 °F 33.8 °F 70% 29.59 in 6.2 mi South 13.8 mph - N/A   Unknown
10:55 PM 42.8 °F 35.8 °F 33.8 °F 70% 29.56 in 6.2 mi South 13.8 mph - N/A   Unknown
11:00 PM 43 °F - 34 °F 60% 29.59 in 7 mi South 15.7 mph - -   Overcast
11:25 PM 42.8 °F 34.8 °F 33.8 °F 70% 29.56 in 6.2 mi South 17.3 mph - N/A   Unknown
11:55 PM 42.8 °F 35.1 °F 33.8 °F 70% 29.53 in 6.2 mi South 16.1 mph - N/A   Unknown